Create Custom Reports and Graphics: Custom Report

North/Central Map

Map

15 Minute Data

South County Map

Map

15 Minute Data

Northern Sonoma County Latest

25 Stations

15 Minute Data | America/Los_Angeles
as of 5/7/26 7:30 PM PDT
Station Date Time Temp (°F) RH (%) Dew Pt (°F) Wind Spd (mph) Wind Dir (°) Wind Gust (mph) Latest Rain (In) Daily Rain (In) Daily Max Temp (°F) Daily Min Temp (°F)
Bavarian Lion EFW 5/7/26 1930 68.7   0.0 - - - - - 0.00 0.00 77.8   0.3 50.0   4.2
Rockpile Lower (Cooley) 5/7/26 1900 73.2   4.1 57   1 56.8   4.1 2.3   1.8 ESE | 118 5.0   8.7 0.00 0.00 80.4   2.6 48.1   4.3
Rockpile Upper (Cooley) 5/7/26 1930 69.4   6.2 56   7 53.1   2.7 2.9   10.1 WNW | 302 6.1   14.3 0.00 0.00 76.8   2.1 44.8   3.8
Lower Dry Creek Valley 5/7/26 1930 66.0   4.0 67   10 54.7   0.8 4.6   2.1 SE | 142 8.8   1.6 0.00 0.00 75.8   4.6 51.8   3.2
Geyserville-South (Nervo Station) 5/7/26 1930 65.5   3.3 - - 4.7   2.5 SSW | 196 8.4   3.4 0.00 0.00 75.9   2.0 51.4   2.7
Franz Valley (Stornetta) 5/7/26 1930 66.1   0.7 66   1 54.6   1.2 2.5   0.4 WNW | 293 5.3   2.4 0.00 0.00 76.0   0.5 48.5   4.8
Geyserville (Ranch 3) 5/7/26 1930 69.2   2.1 61   5 55.2   0.3 2.9   0.6 SE | 144 5.5   1.3 0.00 0.00 77.3   2.6 52.8   2.6
Geyserville-North (Hoffman) 5/7/26 1930 69.6   2.0 64   5 56.9   0.6 3.5   0.5 SSE | 166 6.8   0.4 0.00 0.00 78.8   2.9 52.9   2.8
Knights Valley (Bavarian Lion) 5/7/26 1930 67.8   1.4 63   2 54.8   2.3 2.5   1.4 W | 272 6.4   1.1 0.00 0.00 76.3   0.3 49.1   4.3
HWY 128/Chalk Hill Rd (Landslide) 5/7/26 1900 70.3   0.3 60   4 55.9   2.0 4.3   0.5 SW | 235 7.8   2.2 0.00 0.00 75.6   3.2 51.8   3.3
Newman Knights Valley 5/7/26 1930 66.9   0.8 72   4 57.7   0.6 4.0   0.2 WSW | 239 8.0   0.1 0.00 0.00 75.0   1.2 51.8   2.7
Jimtown-North (Piccolo Ranch 15) 5/7/26 1930 68.4   0.6 60   5 54.1   1.8 1.5   0.4 SE | 127 5.0   1.1 0.00 0.00 77.7   1.4 52.1   2.6
Peterson (Ranch 09) 5/7/26 1930 65.6   3.2 65   8 53.6   0.4 6.1   2.8 S | 188 9.1   3.2 0.00 0.00 76.2   2.0 51.5   2.6
Cloverdale-SE (Ranch 38) 5/7/26 1930 68.9   1.4 68   5 57.8   0.8 9.3   2.9 SSE | 160 12.5   3.1 0.00 0.00 78.1   3.1 50.9   2.8
Geyserville-East (Ranch 40) 5/7/26 1930 64.2   2.0 74   8 55.9   1.1 9.4   1.9 S | 190 13.3   1.9 0.00 0.00 76.8   2.9 50.4   1.8
N Chalk Hill Rd (Ranch 63) 5/7/26 1930 66.4   1.5 64   6 53.9   1.1 4.8   0.6 S | 176 8.3   0.4 0.00 0.00 74.5   2.2 49.6   4.0
Cloverdale-East (Ranch 83) 5/7/26 1930 71.8   1.3 - - 4.3   0.0 SSW | 193 9.1   1.0 0.00 0.00 80.6   2.8 52.4   2.9
Crazy Creek Ranch 5/7/26 1930 68.4   0.2 68   5 57.6   1.8 2.8   0.4 SE | 145 5.3   1.4 0.00 0.00 76.8   1.8 52.4   2.8
Lytton East (Hill 5) 5/7/26 1930 64.3   3.0 69   8 54.1   0.7 6.4   1.5 SSE | 159 10.2   1.4 0.00 0.00 74.1   3.1 51.0   2.8
Lytton East (Shop Hill Bottom) 5/7/26 1930 64.5   3.1 68   9 53.8   0.9 3.9   0.1 SE | 136 7.5   1.0 0.00 0.00 75.0   4.8 51.2   2.9
Lytton West Hill (23PS) 5/7/26 1930 65.1   3.7 68   10 54.3   1.0 4.5   0.6 SSE | 153 9.1   2.4 0.00 0.00 74.9   4.2 51.4   3.2
Lytton West Lower (Lew 6) 5/7/26 1930 65.9   3.2 66   9 54.1   0.8 3.8   0.8 SE | 124 8.0   1.0 0.00 0.00 75.2   3.1 51.3   2.9
Whitton Ranch (201e) 5/7/26 1930 67.2   2.6 64   6 54.9   0.3 3.4   0.9 S | 181 6.8   1.2 0.00 0.00 77.8   1.3 51.9   2.7
Upper Dry Creek Valley 5/7/26 1930 67.6   4.9 64   10 55.0   0.2 5.1   2.3 SE | 135 9.7   4.0 0.00 0.00 77.9   3.0 51.9   3.2
Big River 5/7/26 1930 64.7   2.8 71   8 55.0   0.6 4.9   1.7 SSE | 154 8.6   2.2 0.00 0.00 74.4   2.1 51.4   3.0
Max     73.2 74 57.8 9.4 - 13.3 0.00 0.00 80.6 52.9
Avg     67.4 65 55.2 4.3 - 7.9 0.00 - - -
Min     64.2 56 53.1 1.5 - 5.0 0.00 0.00 74.1 44.8

Central Sonoma County Latest

37 Stations

15 Minute Data | America/Los_Angeles
as of 5/7/26 7:30 PM PDT
Station Date Time Temp (°F) RH (%) Dew Pt (°F) Wind Spd (mph) Wind Dir (°) Wind Gust (mph) Latest Rain (In) Daily Rain (In) Daily Max Temp (°F) Daily Min Temp (°F)
Windsor-NW (Ranch 8) 5/7/26 1930 62.6   4.7 77   10 55.3   0.8 3.4   0.9 E | 83 8.2   1.6 0.00 0.00 74.3   2.9 52.0   2.3
Windsor-East (Ranch 16) 5/7/26 1930 62.5   2.7 72   6 53.4   0.1 6.5   0.3 SSE | 164 10.1   0.0 0.00 0.00 72.0   3.1 51.6   3.0
Mark West-North (Ranch 14) 5/7/26 1930 61.1   3.4 74   7 52.7   0.3 3.5   0.6 SSE | 151 7.9   2.0 0.00 0.00 70.9   3.7 51.8   2.5
Windsor-SE (Silk Rd) 5/7/26 1915 63.2   4.8 71   12 53.9   0.6 4.8   1.4 SE | 126 9.3   2.6 0.00 0.00 72.5   2.1 52.3   2.5
Fulton-NW (Ranch 5) 5/7/26 1930 61.7   3.5 75   8 53.7   0.5 4.4   1.2 ESE | 123 8.2   1.4 0.00 0.00 71.6   2.4 51.9   2.4
Bisordi (Fulton) 5/7/26 1930 60.7   2.5 80   6 54.7   0.3 5.0   0.4 SE | 139 10.8   0.4 0.00 0.00 70.8   2.8 52.2   2.3
Windsor-South (Laughlin Rd) 5/7/26 1930 59.8 77 52.6 - - - 0.00 0.00 72.5 51.7
Fulton-SE (Barnes Rd) 5/7/26 1930 60.9   2.1 74   4 52.7   0.5 0.7   5.2 SE | 124 9.9   1.5 0.00 0.00 70.9   2.2 52.1   2.8
Fulton-SW (Ranch 21) 5/7/26 1930 60.0   4.3 77   8 52.8   1.2 6.5   0.2 SSE | 153 12.2   0.4 0.00 0.00 69.7   3.4 51.2   2.8
NW Santa Rosa (Piner Road) 5/7/26 1930 58.8   5.3 90   14 56.0   0.5 3.8   1.1 SE | 143 10.0   3.2 0.00 0.00 69.0   3.8 51.5   2.8
River Rd South (Denner Ranch) 5/7/26 1930 59.9   5.0 75   11 52.1   0.2 7.9   0.9 ESE | 120 13.4   3.7 - - 72.1   2.5 51.1   2.8
West Santa Rosa (LOV Vineyard) 5/7/26 1930 60.4   4.5 76   10 52.8   0.5 2.0   1.0 SSE | 160 6.2   0.7 0.00 0.00 71.2   1.6 51.5   2.9
Guerneville Rd (Prokopakis) 5/7/26 1930 60.8   9.8 76   21 53.3   0.7 - - - 0.00 0.00 73.1   4.7 51.8   2.9
SunnyView Vineyard (SCWC) 5/7/26 1915 60.1   5.1 76   11 52.5   0.6 2.8   0.3 SE | 131 8.2   1.1 0.00 0.00 69.6   3.9 51.1   2.9
Guerneville Rd West (Balletto) 5/7/26 1930 60.0   4.4 81   8 54.1   1.3 6.1   1.8 SE | 136 11.4   3.1 0.00 0.00 71.2   1.3 51.7   3.0
Sanchietti Ranch 5/7/26 1930 58.6   5.0 84   7 53.7   2.6 5.9   1.7 SE | 144 9.9   2.5 0.00 0.00 69.7   3.3 52.2   3.0
Occidental Rd (Sebastopol) 5/7/26 1930 58.6   3.8 100   0 58.6   3.8 3.2   0.4 SE | 129 7.2   0.0 0.00 0.00 71.2   1.1 51.2   2.6
Harper's Rest (Windsor-West) 5/7/26 1930 60.9   3.6 74   10 52.4   0.5 4.7   2.0 E | 93 9.9   4.6 0.00 0.00 74.5   1.7 50.7   2.7
Lower Westside Rd (Ranch 12) 5/7/26 1930 62.0   3.4 74   11 53.7   1.0 3.4   1.1 ESE | 120 8.6   3.4 0.00 0.00 76.0   1.5 51.6   3.0
Guerneville (Laughlin Rd) 5/7/26 1930 58.8   0.9 78   2 51.8   0.3 2.9   0.7 SSE | 151 5.9   0.1 0.00 0.00 72.2   1.5 51.5   2.4
Korbel (Winery) 5/7/26 1930 63.4   1.0 71   4 53.8   0.6 0.6   0.6 SW | 217 2.8   2.8 0.00 0.00 74.1   0.7 52.0   2.6
Forestville (Shone Farms) 5/7/26 1930 62.4   5.1 75   15 54.4   1.1 4.0   1.9 ESE | 107 7.9   0.2 0.00 0.00 75.4   0.8 49.9   2.4
Forestville-NE (Ranch 30) 5/7/26 1930 61.7   4.0 79   13 55.3   1.0 5.6   2.4 SE | 125 10.3   3.3 0.00 0.00 75.9   0.3 50.9   3.0
Foggy Bend (Ranch 41) 5/7/26 1930 64.5   1.9 74   8 56.1   1.2 1.3   3.8 E | 99 4.2   6.1 0.00 0.00 75.6   0.3 52.2   2.8
Last Stop 5/7/26 1930 62.4   2.6 73   6 53.7   0.0 3.6   1.3 SE | 136 6.5   1.0 0.00 0.00 76.0   1.8 51.4   2.9
Green Valley Vineyard 5/7/26 1930 62.3   2.5 73   11 53.7   2.0 3.6   0.5 NE | 38 6.8   1.1 0.00 0.00 73.4   0.7 50.1   3.3
Park Royal 5/7/26 1930 59.3   3.2 77   6 52.0   0.9 - - - 0.00 0.00 69.6   3.4 51.1   3.0
Merino 5/7/26 1930 58.8   3.8 82   7 53.5   1.3 4.5   0.8 SSE | 155 8.6   1.1 0.00 0.00 69.4   3.5 51.5   2.8
Green Valley (Sanchietti) 5/7/26 1930 62.3   4.0 - - - - - - - 76.5   0.1 50.4   4.3
Keefer Ranch (Green Valley) 5/7/26 1930 62.6   2.2 74   8 54.2   0.8 - - - 0.00 0.00 74.2   1.2 51.3   3.1
Graton-West (Dutton Ranch) 5/7/26 1930 63.3   0.9 100   14 63.4   3.3 2.3   0.5 SSE | 159 4.6   1.4 0.00 0.00 75.3   0.7 51.5   3.0
Graton-South (Mill Station Rd) 5/7/26 1930 59.5   3.2 77   8 52.4   0.2 1.9   0.7 S | 178 4.8   0.3 0.00 0.00 70.3   0.4 50.7   3.0
Occidental (Horseshoe Bend) 5/7/26 1930 58.8   0.2 81   4 53.0   1.2 - - - 0.00 0.01 71.0   1.7 49.2   2.2
Sexton Valley (Jacqueline's Blk) 5/7/26 1930 58.9   1.3 81   2 53.2   0.5 2.3   0.0 S | 188 6.1   1.7 0.00 0.00 69.4   0.3 51.1   3.1
Sebastopol Hills (Burnside Rd) 5/7/26 1930 56.0   2.4 88   5 52.5   0.8 6.8   2.2 SW | 221 12.2   4.8 0.00 0.00 65.4   1.2 49.6   2.7
Pleasant Hill 5/7/26 1930 57.6   2.1 80   6 51.6   0.0 4.0   1.6 SW | 222 8.2   2.4 0.00 0.00 68.3   0.6 50.3   2.9
Seaview/Fort Ross (Hirsch) 5/7/26 1930 60.4   2.5 77   1 53.2   2.1 1.8   1.4 NNW | 329 4.7   2.8 0.00 0.00 63.6   1.3 47.2   1.8
Max     64.5 100 63.4 7.9 - 13.4 0.00 0.01 76.5 52.3
Avg     60.7 78 53.9 3.9 - 8.2 0.00 - - -
Min     56.0 71 51.6 0.6 - 2.8 0.00 0.00 63.6 47.2

Southern Sonoma County Latest

20 Stations

15 Minute Data
as of 5/7/26 7:30 PM PDT
Station Date Time Temp (°F) RH (%) Dew Pt (°F) Wind Spd (mph) Wind Dir (°) Wind Gust (mph) Latest Rain (In) Daily Rain (In) Daily Min Temp (°F) Daily Max Temp (°F)
Upper Rincon Valley 5/7/26 1930 58.3   0.4 81   3 52.5   0.6 1.4   0.3 S | 185 3.3   0.8 0.00 0.00 48.1   2.6 67.6   2.6
Lower Bennett Valley 5/7/26 1930 56.2   2.7 88   8 52.6   0.2 4.7   0.7 N | 354 9.6   1.5 0.00 0.00 49.9   3.5 68.7   3.5
Kenwood (Wildwood) 5/7/26 1930 62.4   1.1 74   0 53.9   1.0 2.6   0.7 N | 351 6.7   1.1 0.00 0.00 47.8   5.7 72.9   0.4
Crane Creek (Ranch 62) 5/7/26 1930 55.6   2.9 86   6 51.5   0.8 3.3   0.2 S | 176 6.8   0.0 0.00 0.00 50.8   3.1 67.8   4.2
Rohnert Park-West (Stony Point) 5/7/26 1930 56.5   0.8 86   0 52.4   0.7 3.5   2.0 S | 186 7.2   3.6 0.00 0.00 51.2   2.9 64.8   4.0
Rice-Spivak Vineyard 5/7/26 1930 57.3   0.3 - - - - - - - 50.8   2.6 66.8   3.9
Cartograph Wines Base 5/7/26 1930 54.7   1.4 91   2 52.0   0.9 8.4   0.3 SSW | 198 17.8   2.7 0.00 0.00 50.0   3.0 63.3   2.9
Cartograph Wines Remote 5/7/26 1930 57.6   0.1 - - - - - - - 50.9   2.7 63.7   5.1
Penngrove (Asellus) 5/7/26 1930 55.3   2.2 86   4 51.1   0.7 4.0   0.9 SSW | 196 7.4   1.2 0.00 0.00 51.0   3.1 66.3   4.3
Sonoma Valley (Bedrock) 5/7/26 1930 62.6   0.8 70   5 52.5   1.3 - - - 0.00 0.00 48.0   5.8 74.8   0.8
Sonoma-West (Arnold) 5/7/26 1930 60.9   1.2 76   3 53.4   0.1 4.9   0.6 SW | 218 8.3   1.5 0.00 0.00 48.7   6.3 75.7   1.3
Sonoma Valley HS 5/7/26 1930 59.3   2.1 83   4 54.3   0.8 5.5   0.8 SW | 226 8.9   1.0 0.00 0.01 51.4   3.6 73.0   0.1
Sonoma East (Bundschu01) 5/7/26 1930 61.2   0.2 74   0 52.8   0.2 2.3   3.1 SSE | 157 5.9   5.7 0.00 0.00 50.9   4.0 72.7   2.2
Sonoma-SE (Napoli) 5/7/26 1930 62.1   1.0 69   4 52.0   0.5 2.1   4.2 NW | 308 5.4   7.4 0.00 0.00 51.5   3.4 73.6   2.8
Schellville (Sasaki) 2/7/26 1900 53.4   2.2 88   10 49.9   1.0 3.3   1.8 SW | 225 5.8   4.0 0.00 0.00 47.0   0.8 62.8   8.4
Petaluma (Ranch 10) 5/7/26 1930 57.2   1.6 80   4 51.2   0.3 6.6   0.1 W | 274 11.7   1.5 0.00 0.00 52.2   2.4 69.7   4.0
Carneros (Ranch 71) 5/7/26 1930 58.3   0.6 79   1 52.0   0.4 8.4   6.7 W | 278 15.5   7.7 0.00 0.00 50.8   2.9 71.8   0.5
Ricci Vineyards (Carneros) 5/7/26 1930 58.8   1.0 78   2 52.0   0.3 9.0   2.7 W | 276 14.2   3.2 0.00 0.00 51.4   3.2 74.4   0.8
Carneros Upper (Ranch 81) 5/7/26 1930 58.4   0.5 78   1 51.8   0.2 11.2   7.1 WSW | 258 16.2   8.7 - - 50.9   2.9 73.2   0.2
Carneros Lower (Ranch 81) 5/7/26 1930 58.8   0.8 79   1 52.4   0.5 0.8   1.2 WSW | 248 6.1   3.7 0.00 0.01 51.1   3.5 78.0   2.8
Max     62.6 91 54.3 11.2 - 17.8 0.00 0.01 52.2 78.0
Avg     58.5 80 52.4 4.9 - 9.4 0.00 - - -
Min     54.7 69 51.1 0.8 - 3.3 0.00 0.00 47.8 63.3

AQI Map

Map

Hourly Data